Orlando, FL

9:33 PM EDT on May 28, 2017 (GMT -0400)
Executive

Weather History for KORL - May, 2014

Change the Weather History Date:

Thursday, May 15, 2014

  Actual Average Record
Temperature  
Mean Temperature 80 °F -  
Max Temperature 87 °F 85 °F 93 °F (2012)
Min Temperature 73 °F 65 °F 62 °F (2013)
Cooling Degree Days 14    
Growing Degree Days 30 (Base 50)    
Moisture  
Dew Point 72 °F    
Average Humidity 86    
Maximum Humidity 97    
Minimum Humidity 61    
Precipitation  
Precipitation 0.37 in - - ()
Sea Level Pressure  
Sea Level Pressure 29.95 in    
Wind  
Wind Speed 9 mph (South)    
Max Wind Speed 31 mph    
Max Gust Speed 39 mph    
Visibility 8 miles    
Events Rain , Thunderstorm    
Averages and records for this station are not official NWS values.
T = Trace of Precipitation, MM = Missing Value Source: NWS Daily Summary

Daily Weather History Graph

Daily Weather History Graph

Search for Another Location

Airport or City:

Trip Planner

Search our weather history database for the weather conditions in past years. The results will help you decide how hot, cold, wet, or windy it might be!

Date:

Astronomy

May. 15, 2014 Rise Set
Actual Time 6:34 AM EDT 8:09 PM EDT
Civil Twilight 6:08 AM EDT 8:34 PM EDT
Nautical Twilight 5:38 AM EDT 9:05 PM EDT
Astronomical Twilight 5:06 AM EDT 9:37 PM EDT
Moon 9:15 PM EDT (5/15) 7:19 AM EDT (5/15)
Length of Visible Light 14h 25m
Length of Day
13h 34m
Full, 99% of the Moon is Illuminated
May 15
Full
May 21
Last Quarter
May 28
New
Jun 5
First Quarter
Jun 13
Full

Hourly Weather History & Observations

Time (EDT) Temp. Heat Index Dew Point Humidity Pressure Visibility Wind Dir Wind Speed Gust Speed Precip Events Conditions
12:53 AM 75.9 °F - 72.0 °F 87% 30.04 in 10.0 mi SE 8.1 mph - N/A   Clear
1:53 AM 75.0 °F - 72.0 °F 90% 30.01 in 10.0 mi SE 6.9 mph - N/A   Clear
2:53 AM 73.9 °F - 72.0 °F 93% 29.99 in 10.0 mi SE 6.9 mph - N/A   Partly Cloudy
3:53 AM 73.9 °F - 71.1 °F 91% 29.98 in 10.0 mi SE 6.9 mph - N/A   Clear
4:53 AM 73.9 °F - 72.0 °F 93% 29.97 in 10.0 mi SSE 8.1 mph - N/A   Clear
5:25 AM 73.9 °F - 71.1 °F 91% 29.96 in 10.0 mi SE 6.9 mph - N/A   Partly Cloudy
5:53 AM 73.9 °F - 71.1 °F 91% 29.98 in 10.0 mi SSE 8.1 mph - N/A   Partly Cloudy
6:53 AM 73.9 °F - 71.1 °F 91% 29.98 in 10.0 mi SSE 8.1 mph - N/A   Clear
7:53 AM 75.0 °F - 71.1 °F 87% 30.00 in 10.0 mi ESE 8.1 mph - N/A   Mostly Cloudy
8:13 AM 75.9 °F - 72.0 °F 87% 29.99 in 10.0 mi SSE 10.4 mph - N/A   Mostly Cloudy
8:29 AM 75.9 °F - 71.1 °F 85% 29.98 in 10.0 mi South 13.8 mph - N/A   Scattered Clouds
8:53 AM 78.1 °F - 71.1 °F 79% 29.99 in 10.0 mi South 13.8 mph - N/A   Partly Cloudy
9:40 AM 78.1 °F - 72.0 °F 81% 29.98 in 10.0 mi South 12.7 mph - N/A   Mostly Cloudy
9:53 AM 79.0 °F - 72.0 °F 79% 29.99 in 10.0 mi South 12.7 mph - N/A   Overcast
10:53 AM 84.0 °F 90.2 °F 73.0 °F 69% 29.99 in 10.0 mi South 13.8 mph - N/A   Mostly Cloudy
11:53 AM 84.9 °F 91.4 °F 73.0 °F 67% 29.97 in 10.0 mi South 12.7 mph - N/A   Partly Cloudy
12:53 PM 86.0 °F 92.2 °F 72.0 °F 63% 29.94 in 10.0 mi South 13.8 mph - 0.00 in   Mostly Cloudy
1:53 PM 86.0 °F 91.5 °F 71.1 °F 61% 29.91 in 10.0 mi South 16.1 mph 23.0 mph N/A   Mostly Cloudy
2:06 PM 84.9 °F 89.4 °F 70.0 °F 61% 29.90 in 10.0 mi South 12.7 mph - N/A Thunderstorm Thunderstorm
2:29 PM 79.0 °F - 72.0 °F 79% 29.91 in 0.8 mi WSW 31.1 mph 39.1 mph 0.21 in Rain , Thunderstorm Thunderstorms and Rain
2:44 PM 77.0 °F - 71.1 °F 82% 29.91 in 0.5 mi SSW 5.8 mph 31.1 mph 1.05 in Rain , Thunderstorm Light Thunderstorms and Rain
3:24 PM 75.0 °F - 71.1 °F 87% 29.91 in 6.0 mi SE 8.1 mph - 0.03 in Rain , Thunderstorm Light Thunderstorms and Rain
3:45 PM 77.0 °F - 72.0 °F 84% 29.91 in 10.0 mi South 8.1 mph - 0.03 in Thunderstorm Overcast
3:53 PM 77.0 °F - 73.0 °F 88% 29.90 in 10.0 mi SSW 5.8 mph - 0.03 in Rain , Thunderstorm Light Rain
4:07 PM 79.0 °F - 75.0 °F 88% 29.89 in 10.0 mi West 8.1 mph - 0.00 in   Scattered Clouds
4:34 PM 75.0 °F - 71.1 °F 87% 29.92 in 1.8 mi West 12.7 mph - 0.09 in Rain Rain
4:51 PM 75.2 °F - 73.4 °F 94% 29.91 in 10.0 mi Calm Calm - 0.15 in   Overcast
4:53 PM 75.9 °F - 73.9 °F 94% 29.93 in 10.0 mi Calm Calm - 0.15 in   Overcast
5:53 PM 79.0 °F - 73.9 °F 84% 29.92 in 10.0 mi South 5.8 mph - N/A   Overcast
6:19 PM 75.9 °F - 72.0 °F 87% 29.91 in 7.0 mi SE 13.8 mph - 0.01 in Rain , Thunderstorm Light Rain
6:39 PM 73.9 °F - 73.0 °F 97% 29.92 in 3.0 mi South 11.5 mph - 0.07 in Rain , Thunderstorm Heavy Rain
6:44 PM 73.9 °F - 73.0 °F 97% 29.92 in 2.5 mi SSW 13.8 mph - 0.08 in Rain Rain
6:53 PM 73.9 °F - 72.0 °F 93% 29.94 in 1.8 mi South 13.8 mph - 0.15 in Rain Heavy Rain
6:59 PM 73.9 °F - 72.0 °F 93% 29.92 in 2.5 mi South 12.7 mph - 0.00 in Rain Light Rain
7:06 PM 73.9 °F - 73.0 °F 97% 29.93 in 4.0 mi South 10.4 mph - 0.02 in Rain Rain
7:53 PM 73.9 °F - 72.0 °F 93% 29.94 in 10.0 mi South 9.2 mph - 0.04 in   Partly Cloudy
8:53 PM 73.9 °F - 72.0 °F 93% 29.95 in 10.0 mi South 5.8 mph - N/A   Mostly Cloudy
9:53 PM 73.9 °F - 72.0 °F 93% 29.97 in 10.0 mi SW 8.1 mph - N/A   Mostly Cloudy
10:01 PM 73.9 °F - 72.0 °F 93% 29.96 in 10.0 mi WSW 6.9 mph - N/A   Mostly Cloudy
10:32 PM 73.9 °F - 72.0 °F 93% 29.97 in 10.0 mi WSW 5.8 mph - N/A   Scattered Clouds
11:53 PM 73.9 °F - 70.0 °F 87% 29.98 in 10.0 mi West 8.1 mph - N/A   Mostly Cloudy